Volver al catálogo

ATLAS 28E R/B

ActivoPO
NORAD 20563·ROCKET BODY·🇺🇸 United States

Lanzado Apr 11, 1990 desde Vandenberg Space Force Base

Loading…

Próximos Pases (próximas 24 horas)

TLE

ActualizadoSource: Space-Track

Época: Sep 14, 2026, 16:56 UTC

1 20563U 90031D   26257.70555670  .00000627  00000-0  77610-4 0  9996
2 20563  89.8686 255.0743 0056207 215.4371 144.3114 14.80505584383790

Sigue ATLAS 28E R/B en tiempo real con AllMySat

Download on the App Store